SCP
0 0 0 0 0 0 0 0 0 0 0 0 0 0 0 0 0 0 0 0 0 0 0 0 0 0 0 0 0 0 0 0 0 0 0 0 0 0 0 0 0 0 0 0 0 0 0 0 0
0 0 0 0 0 0 0 0 0 0 0 0 0 0 0 0 0 0 0 0 0 0 0 0 0 0 0 0 0 0 0 0 0 0 0 0 0 0 0 0 0 0 0 0 0 0 0 0 0
0 0 0 0 0 0 0 0 0 0 0 0 0 0 0 0 0 0 0 0 0 0 0 0 0 0 0 0 0 0 0 0 0 0 0 0 0 0 0 0 0 0 0 0 0 0 0 0 0
0 0 0 0 0 0 0 0 0 0 0 0 0 0 0 0 0 0 -0 0 0 0 0 0 0 0 0 0 0 0 0 0 0 0 0 0 0 0 0 0 0 0 0 0 0 0 0 0 0
0 0 0 0 0 0 0 0 0 0 0 0 0 0 0 0 0 -0 -0 0 0 0 0 0 0 0 0 0 0 0 0 0 0 0 0 0 0 0 0 0 0 0 0 0 0 0 0 0 0
0 0 0 0 0 0 0 0 0 0 0 0 0 0 0 0 0 0 0 0 0 0 0 0 0 0 0 0 0 0 0 0 0 0 0 0 0 0 0 0 0 0 0 0 0 0 0 0 0
0 0 0 0 0 0 0 0 0 0 0 0 0 0 0 0 0 0 0 0 0 0 0 0 0 0 0 0 0 0 0 0 0 0 0 0 0 0 0 0 0 0 0 0 0 0 0 0 0
0 0 0 0 0 0 0 -0 0 0 0 0 0 0 0 0 0 0 0 0 0 0 0 0 0 0 0 0 0 0 0 0 0 0 0 0 0 0 0 0 0 0 0 0 0 0 0 0 0
0 0 0 0 0 0 0 -0 0 0 0 0 0 0 0 0 0 0 0 0 0 0 0 0 0 0 0 0 0 0 0 0 0 0 0 0 0 0 0 0 0 0 0 0 0 0 0 0 0
0 0 0 0 0 0 0 0 0 0 0 0 0 0 0 0 0 0 0 0 0 0 0 0 0 0 0 0 0 0 0 0 0 0 0 0 0 0 0 0 0 0 0 0 0 0 0 0 0
0 0 0 0 0 0 0 0 0 0 0 0 0 0 0 0 0 0 0 0 0 0 0 0 0 0 0 0 0 0 0 0 0 0 0 0 0 0 0 0 0 0 0 0 0 0 0 0 0
0 0 0 0 0 0 0 0 0 0 0 0 0 0 0 0 0 0 0 0 0 0 0 0 0 0 0 0 0 0 0 0 0 0 0 0 0 0 0 0 0 0 0 0 0 0 0 0 0
0 0 0 0 0 0 0 0 0 0 0 0 0 0 0 0 0 0 0 0 0 0 0 0 0 0 0 0 0 0 0 0 0 0 0 0 0 0 0 0 0 0 0 0 0 0 0 0 0
0 0 0 0 0 0 0 0 0 0 0 0 0 0 0 0 0 0 0 0 0 0 0 0 0 0 0 0 0 0 0 0 0 0 0 0 0 0 0 0 0 0 0 0 0 0 0 0 0
0 0 0 0 0 0 0 0 0 0 0 0 0 0 0 0 0 0 0 0 0 0 0 0 0 0 0 0 0 0 0 0 0 0 0 0 0 0 0 0 0 0 0 0 0 0 0 0 0
0 0 0 0 0 0 0 0 0 0 0 0 0 0 0 0 0 0 0 0 0 0 0 0 0 0 0 0 0 0 0 0 0 0 0 0 0 0 0 0 0 0 0 0 0 0 0 0 0
0 0 0 0 0 0 0 0 0 0 0 0 0 0 0 0 0 0 0 0 0 0 0 0 0 0 0 0 0 0 0 0 0 0 0 0 0 0 0 0 0 0 0 0 0 0 0 0 0
0 0 0 0 0 0 0 0 0 0 0 0 0 0 0 0 0 0 0 0 0 0 0 0 0 0 0 0 0 0 0 0 0 0 0 0 0 0 0 0 0 0 0 0 0 0 0 0 0
0 0 0 0 0 0 0 0 0 0 0 0 0 0 0 0 0 0 0 0 0 0 0 0 0 0 0 0 0 0 0 0 0 0 0 0 0 0 0 0 0 0 0 0 0 0 0 0 0
0 0 0 0 0 0 0 0 0 0 0 0 0 0 0 0 0 0 0 0 0 0 0 0 0 0 0 0 0 0 0 0 0 0 0 0 0 0 0 0 0 0 0 0 0 0 0 0 0
0 0 0 0 0 0 0 0 0 0 0 0 0 0 0 0 0 0 0 0 0 0 0 0 0 0 0 0 0 0 0 0 0 0 0 0 0 0 0 0 0 0 0 0 0 0 0 0 0
0 0 0 0 0 0 0 0 0 0 0 0 0 0 0 0 0 0 0 0 0 0 0 0 0 0 0 0 0 0 0 0 0 0 0 0 0 0 0 0 0 0 0 0 0 0 0 0 0
0 0 0 0 0 0 0 0 0 0 0 0 0 0 0 0 0 0 0 0 0 0 0 0 0 0 0 0 0 0 0 0 0 0 0 0 0 0 0 0 0 0 0 0 0 0 0 0 0
0 0 0 0 0 0 0 0 0 0 0 0 0 0 0 0 0 0 0 0 0 0 0 0 0 0 0 0 0 0 0 0 0 0 0 0 0 0 0 0 0 0 0 0 0 0 0 0 0
0 0 0 0 0 0 0 0 0 0 0 0 0 0 0 0 0 0 0 0 0 0 0 0 0 0 0 0 0 0 0 0 0 0 0 0 0 0 0 0 0 0 0 0 0 0 0 0 0
0 0 0 0 0 0 0 0 0 0 0 0 0 0 0 0 0 0 0 0 0 0 0 0 0 0 0 0 0 0 0 0 0 0 0 0 0 0 0 0 0 0 0 0 0 0 0 0 0
0 0 0 0 0 0 0 0 0 0 0 0 0 0 0 0 0 0 0 0 0 0 0 0 0 0 0 0 0 0 0 0 0 0 0 0 0 0 0 0 0 0 0 0 0 0 0 0 0
0 0 0 0 0 0 0 0 0 0 0 0 0 0 0 0 0 0 0 0 0 0 0 0 0 0 0 0 0 0 0 0 0 0 0 0 0 0 0 0 0 0 0 0 0 0 0 0 0
0 0 0 0 0 0 0 0 0 0 0 0 0 0 0 0 0 0 0 0 0 0 0 0 0 0 0 0 0 0 0 0 0 0 0 0 0 0 0 0 0 0 0 0 0 0 0 0 0
0 0 0 0 0 0 0 0 0 0 0 0 0 0 0 0 0 0 0 0 0 0 0 0 0 0 0 0 0 0 0 0 0 0 0 0 0 0 0 0 0 0 0 0 0 0 0 0 0
Wind_Speed
1 0 2 2 4 4 5 3 2 4 3 2 2 1 2 2 2 4 5 3 3 3 2 3 5 6 7 7 8 8 7 6 7 7 7 7 7 7 7 7 7 8 8 9 9 10 10 10 10
0 1 2 2 5 6 5 4 5 3 3 4 3 2 3 4 5 5 3 2 3 3 3 3 6 6 6 7 7 8 7 7 6 7 7 7 7 7 7 7 7 8 8 8 8 9 9 9 9
1 1 2 3 5 6 4 4 4 4 4 3 3 2 3 4 3 3 3 2 3 4 4 5 7 7 7 7 7 7 7 8 7 7 7 7 6 7 7 7 8 8 8 8 8 8 8 8 8
2 2 2 5 7 4 1 3 5 7 4 2 3 5 4 5 3 3 3 3 5 5 5 6 8 8 8 8 8 8 8 8 7 7 7 7 7 7 8 8 8 8 8 8 8 7 7 7 7
1 3 5 6 7 4 2 2 5 6 5 3 3 4 5 4 4 4 3 4 5 5 5 5 7 8 9 9 8 8 8 8 7 7 7 7 7 8 8 8 7 7 7 7 7 7 7 6 6
3 3 6 8 8 4 3 3 5 4 4 3 2 4 5 4 4 3 4 4 5 5 5 5 7 8 8 9 9 8 8 8 7 7 8 8 8 8 8 7 7 6 6 6 6 6 6 6 6
4 4 7 7 7 7 4 4 4 5 5 3 1 4 5 3 3 2 4 5 5 5 5 5 4 5 7 9 9 9 9 8 8 8 8 8 9 9 8 7 6 6 6 6 6 6 5 5 6
2 4 6 7 8 6 5 4 1 2 3 3 0 2 3 2 2 3 4 5 5 5 4 4 4 4 4 5 8 9 9 8 8 9 9 8 8 8 8 7 7 6 6 5 5 5 6 5 5
3 6 8 7 7 5 6 5 3 2 4 3 2 3 4 5 4 5 5 4 4 4 4 4 4 4 4 4 5 6 7 8 7 7 8 5 4 4 4 7 8 7 6 6 5 5 5 5 5
4 7 7 2 2 4 6 4 5 5 4 3 3 3 4 5 5 5 4 4 3 3 3 3 3 3 3 3 3 3 3 4 4 4 4 3 3 3 4 6 8 7 6 5 5 4 3 2 2
4 5 3 3 2 3 5 4 3 5 4 3 3 4 5 5 4 3 3 3 2 2 2 3 3 3 3 2 2 2 2 2 3 4 4 3 2 2 2 2 3 3 3 2 2 1 1 1 2
4 2 2 3 3 3 4 5 3 2 0 2 2 6 7 6 4 3 2 2 2 2 2 2 3 2 2 2 2 2 2 2 3 3 4 2 2 2 2 2 2 2 2 2 1 1 1 1 1
4 3 2 3 5 4 4 3 2 2 0 2 4 6 5 5 4 2 1 1 1 2 2 3 3 2 2 2 2 2 2 2 3 3 3 3 2 2 2 2 2 2 2 2 2 1 1 1 2
4 4 3 2 3 2 4 2 3 3 2 4 5 5 4 3 3 2 1 1 1 1 1 2 2 2 2 2 2 2 2 2 2 2 3 4 3 2 2 2 2 2 2 2 2 2 1 1 1
5 5 3 2 2 2 3 4 5 3 4 5 4 4 4 3 2 1 1 0 0 1 1 2 2 2 2 2 1 1 2 2 2 2 3 4 4 3 2 1 2 2 2 2 2 1 1 1 1
4 5 5 3 2 2 6 7 3 4 6 5 4 4 3 3 2 1 1 1 1 1 1 2 2 2 2 2 1 1 1 2 2 2 2 4 4 3 2 2 2 2 2 2 1 1 1 1 1
4 5 5 3 2 2 6 6 3 4 5 5 4 4 4 3 1 0 1 1 1 1 1 2 2 2 2 2 2 2 2 2 2 2 2 3 3 3 3 2 2 2 1 1 2 1 1 1 1
5 5 5 4 1 3 6 7 4 5 5 5 5 5 4 3 3 1 0 1 1 1 2 2 2 3 2 1 1 1 2 2 2 2 3 4 3 4 3 2 2 2 1 1 2 1 1 1 1
1 4 6 3 0 4 8 9 7 5 6 7 6 5 5 4 3 1 1 1 1 2 2 3 3 3 2 1 1 1 1 1 2 2 3 4 4 4 3 2 2 2 1 2 2 2 1 1 1
3 5 5 3 0 3 6 10 7 5 7 7 7 6 6 4 3 2 1 1 1 1 1 2 2 2 2 1 1 1 1 1 1 2 3 4 4 4 3 3 2 2 2 2 2 2 1 0 1
4 5 4 3 3 3 5 8 6 4 5 5 6 6 6 5 5 3 2 1 1 1 1 1 1 1 2 1 1 1 1 1 1 2 2 3 4 4 4 3 3 2 2 2 2 2 2 1 1
4 1 3 3 4 3 3 7 5 4 5 6 6 7 6 5 4 4 3 2 1 0 1 1 1 2 2 1 1 1 0 1 2 2 2 3 3 4 4 4 3 3 2 3 2 2 3 2 2
1 2 1 2 4 5 4 7 5 3 5 7 6 6 6 5 5 4 3 2 1 1 1 1 2 2 2 2 1 0 1 1 1 2 2 3 3 3 4 4 4 3 3 3 3 3 3 2 2
3 2 2 1 3 6 5 7 6 4 5 4 4 4 4 4 4 3 2 2 1 1 1 1 1 2 2 2 2 1 1 1 2 2 3 3 2 2 4 4 4 3 3 3 3 3 4 3 3
2 2 2 3 4 5 3 6 7 1 2 3 3 3 3 3 3 3 3 2 2 1 0 0 0 1 1 1 1 2 2 2 2 2 3 3 3 3 4 4 4 3 4 4 4 3 4 4 3
3 3 3 5 5 3 4 8 3 1 1 1 2 2 2 3 3 3 3 3 2 2 1 1 1 0 1 1 1 2 2 2 2 3 3 3 3 3 4 4 4 4 4 4 4 3 4 3 4
4 3 2 1 1 5 6 5 4 2 1 1 1 1 2 2 2 2 2 2 2 2 2 2 1 1 1 1 2 2 2 2 2 3 3 3 3 4 5 5 5 5 4 4 4 3 4 3 4
1 3 3 4 5 7 7 7 5 4 4 3 2 2 2 1 1 1 2 2 2 2 2 1 2 2 2 2 2 2 2 2 2 2 3 3 4 4 5 5 5 5 4 4 4 4 3 4 4
4 4 4 3 4 5 7 5 1 3 3 3 3 2 2 2 1 1 1 1 2 1 1 1 1 2 2 2 2 2 2 2 2 2 3 3 4 4 4 5 5 5 4 4 4 3 4 4 4
3 5 6 5 5 5 6 5 3 2 1 2 2 2 2 1 1 1 1 1 1 1 1 1 2 2 2 2 2 2 2 2 2 2 3 3 4 4 4 4 4 5 4 4 4 4 4 4 4
Wind_Direction
5 295 225 218 206 213 212 174 171 156 152 101 85 103 107 67 15 66 67 63 58 92 86 76 60 70 78 79 74 70 69 74 76 75 75 76 79 80 82 81 79 76 74 73 71 71 70 69 72
22 225 209 216 224 213 194 174 177 150 111 123 110 112 115 90 45 68 70 37 68 91 80 68 55 70 81 81 77 71 66 67 73 72 70 71 74 75 75 74 75 75 74 72 71 70 71 70 71
132 300 212 201 221 226 175 154 161 132 122 159 127 70 63 83 77 66 40 64 91 87 72 67 53 64 74 77 76 71 65 63 68 66 64 65 68 72 74 71 70 69 67 68 72 71 70 69 68
196 171 196 218 211 216 192 134 152 153 148 145 157 124 96 56 37 36 63 90 98 84 71 67 51 58 64 69 70 69 64 60 62 60 60 61 63 66 70 68 68 67 66 64 68 71 70 69 67
201 197 196 213 215 186 163 143 171 170 156 146 176 140 117 76 41 63 89 98 97 86 74 71 54 52 58 61 63 66 63 60 60 58 55 56 59 59 62 65 67 66 67 66 65 69 69 67 65
173 199 211 213 204 185 174 179 185 180 155 141 166 145 113 78 53 74 100 98 96 89 76 68 56 48 53 56 54 55 58 58 57 56 55 55 53 55 56 59 64 67 66 64 62 64 67 65 61
204 203 220 214 203 199 175 171 193 185 170 147 205 154 123 107 57 91 104 101 95 88 80 71 65 55 49 49 49 47 45 50 53 54 55 54 52 51 48 48 54 63 65 63 59 60 60 63 61
229 203 208 209 208 198 154 157 137 200 136 89 280 186 141 132 113 120 110 101 92 81 73 67 64 61 60 55 47 45 43 44 51 56 55 53 53 51 46 43 43 47 56 60 59 61 58 57 57
212 218 217 207 207 179 157 166 135 89 123 119 75 22 39 115 131 126 112 95 80 65 58 59 61 57 55 58 50 47 46 44 49 56 51 49 56 54 48 41 35 38 42 52 58 60 56 54 61
203 219 218 195 196 154 156 170 155 162 161 167 148 79 88 123 136 134 123 108 88 57 40 38 44 51 52 54 56 48 48 46 44 51 47 38 41 40 35 42 35 33 36 50 50 51 59 36 75
196 217 171 146 125 143 154 157 169 192 197 216 206 156 134 130 130 130 123 116 107 81 48 33 35 41 54 51 44 41 37 40 39 46 44 39 38 40 32 31 33 26 21 42 48 46 30 17 31
170 162 148 133 131 152 157 156 162 210 316 32 145 144 143 141 141 141 133 105 88 66 35 29 34 36 46 51 47 41 41 39 36 31 30 29 28 24 24 17 11 5 355 2 4 351 15 11 22
181 155 116 113 116 125 135 163 177 199 214 97 114 131 142 147 147 141 129 105 83 66 38 25 21 32 41 57 47 41 40 40 36 27 19 18 22 16 10 1 4 2 350 349 349 342 0 13 18
146 139 132 128 141 158 163 187 204 217 169 143 135 141 145 145 147 132 108 95 70 37 43 37 27 19 33 60 52 45 44 42 37 31 21 19 10 2 352 355 353 358 348 339 326 334 333 350 359
137 146 151 160 165 155 176 217 215 189 166 157 151 146 142 135 129 131 125 138 67 29 37 44 36 22 23 45 67 57 52 47 35 25 22 21 12 356 340 344 347 350 341 330 320 338 316 326 337
167 194 207 158 182 174 224 241 165 163 174 170 167 165 157 147 134 111 69 46 33 35 45 41 40 37 25 23 48 63 53 44 33 22 18 16 7 359 342 336 342 341 334 322 311 329 306 300 302
191 220 223 182 169 194 227 246 153 171 189 185 181 182 178 168 160 111 44 49 50 44 53 52 42 45 35 26 38 55 54 37 23 19 16 7 1 355 352 338 335 327 321 318 315 323 305 292 304
205 216 226 225 155 220 231 243 213 189 204 206 197 193 192 196 199 178 78 49 52 57 58 52 51 41 42 41 42 59 51 34 27 21 14 6 358 353 348 343 333 326 320 322 320 304 307 305 308
206 224 245 251 87 258 247 254 251 215 214 216 209 204 204 207 197 167 131 86 64 57 54 48 44 41 45 26 2 5 358 14 20 17 16 7 358 350 342 343 341 328 322 314 313 301 286 326 333
204 234 250 250 163 269 272 266 254 227 218 219 217 211 209 202 188 172 141 102 78 66 59 58 48 44 37 14 3 348 344 359 5 4 9 2 353 349 341 339 332 330 313 305 302 305 272 321 326
222 237 249 268 285 228 282 259 221 205 214 218 220 217 212 207 200 187 174 151 111 71 39 23 40 47 35 27 43 58 52 357 349 347 353 353 347 346 344 336 328 322 312 296 295 292 274 247 246
234 219 235 252 262 255 265 273 224 205 212 214 216 214 211 205 202 194 186 181 167 87 42 34 33 44 37 35 38 64 358 326 326 325 329 339 343 342 341 335 332 323 308 301 296 291 280 252 237
156 87 221 252 245 262 228 252 254 191 228 224 216 211 207 202 199 196 194 191 180 130 72 49 50 43 33 30 29 13 334 323 324 327 322 329 336 336 339 334 328 324 309 297 294 286 284 257 245
129 123 114 172 224 249 226 234 258 205 229 232 213 208 203 198 198 195 186 182 175 138 94 67 70 50 34 28 20 353 329 329 322 324 319 321 323 325 334 329 323 316 312 305 293 280 275 263 254
189 204 232 226 223 240 155 236 256 244 244 251 240 220 200 194 193 194 195 200 203 199 171 107 96 41 25 14 1 340 323 310 310 318 316 316 314 319 323 319 314 311 307 304 298 281 272 258 249
195 231 235 253 259 268 203 241 256 46 316 276 258 237 204 195 196 204 212 216 219 223 221 220 251 303 347 341 325 320 314 309 313 316 312 307 308 311 313 309 308 306 300 299 296 282 270 258 249
181 202 294 263 289 269 245 252 262 189 213 219 215 199 207 207 205 211 215 219 228 230 230 238 249 276 304 304 303 304 308 308 309 310 306 305 309 310 310 309 308 304 301 300 294 279 273 264 257
301 155 176 205 241 256 256 250 244 207 222 213 216 219 217 209 221 222 216 226 234 242 247 250 249 257 277 293 301 309 319 313 310 306 309 311 310 309 305 307 309 307 308 303 291 285 280 269 263
169 181 207 211 256 257 265 253 171 218 208 211 216 218 219 218 237 248 261 271 265 258 256 259 271 280 291 299 298 302 306 307 303 303 307 308 306 306 303 304 304 303 305 302 293 291 289 276 270
239 219 198 218 223 236 266 268 94 185 191 214 229 233 226 223 240 241 258 282 302 291 282 278 286 291 298 299 297 298 303 293 291 297 301 301 300 300 300 299 299 300 301 298 294 293 289 286 280